,

(GMT )
Grand Etang

Weather History for CWZQ - December, 2011

Change the Weather History Date:

Saturday, December 31, 2011

  Actual Average Record
Temperature  
Mean Temperature 32 °F -  
Max Temperature 45 °F - - ()
Min Temperature 21 °F - - ()
Degree Days  
Heating Degree Days 32    
Moisture  
Dew Point 27 °F    
Average Humidity 78    
Maximum Humidity 89    
Minimum Humidity 60    
Precipitation  
Precipitation 0.00 in - - ()
Sea Level Pressure  
Sea Level Pressure 30.20 in    
Wind  
Wind Speed 12 mph ()    
Max Wind Speed 33 mph    
Max Gust Speed 48 mph    
T = Trace of Precipitation, MM = Missing Value Source: Averaged Metar Reports

Daily Weather History Graph

Daily Weather History Graph

Search for Another Location

Airport or City:

Trip Planner

Search our weather history database for the weather conditions in past years. The results will help you decide how hot, cold, wet, or windy it might be!

Date:

Astronomy

Dec. 31, 2011 Rise Set
Actual Time 7:48 AM AST 4:26 PM AST
Civil Twilight 7:13 AM AST 5:01 PM AST
Nautical Twilight 6:34 AM AST 5:39 PM AST
Astronomical Twilight 5:58 AM AST 6:16 PM AST
Moon 11:04 AM AST (12/31) No Moon Set
Length of Visible Light 9h 47m
Length of Day
8h 37m
Waxing Crescent, 44% of the Moon is Illuminated
Dec 31
Waxing Crescent
Jan 1
First Quarter
Jan 9
Full
Jan 16
Last Quarter
Jan 23
New

Hourly Weather History & Observations

Time (AST) Temp. Windchill Dew Point Humidity Pressure Visibility Wind Dir Wind Speed Gust Speed Precip Events Conditions
12:00 AM 28.0 °F 17.5 °F 22.3 °F 79% 30.27 in - WSW 12.7 mph - N/A   Unknown
12:40 AM 28.0 °F 20.8 °F 22.1 °F 78% - - WSW 6.9 mph - N/A   Unknown
1:20 AM 27.7 °F 20.4 °F 21.4 °F 77% - - WSW 6.9 mph - N/A   Unknown
1:40 AM 27.9 °F 20.6 °F 21.6 °F 77% - - WSW 6.9 mph - N/A   Unknown
2:00 AM 27.5 °F 19.3 °F 20.7 °F 75% 30.30 in - WSW 8.1 mph - N/A   Unknown
2:20 AM 27.7 °F 20.4 °F 21.4 °F 77% - - SW 6.9 mph - N/A   Unknown
3:00 AM 27.5 °F 20.2 °F 21.2 °F 77% 30.32 in - WSW 6.9 mph - N/A   Unknown
3:20 AM 26.1 °F 20.5 °F 19.6 °F 76% - - South 4.6 mph - N/A   Unknown
4:00 AM 22.1 °F 14.7 °F 17.4 °F 82% 30.31 in - ESE 5.8 mph - N/A   Unknown
4:40 AM 21.2 °F 12.6 °F 17.2 °F 85% - - SE 6.9 mph - N/A   Unknown
5:00 AM 22.8 °F 14.5 °F 18.5 °F 83% 30.33 in - SE 6.9 mph - N/A   Unknown
5:20 AM 23.9 °F 15.8 °F 18.9 °F 81% - - SE 6.9 mph - N/A   Unknown
5:40 AM 24.3 °F 15.4 °F 18.9 °F 80% - - SE 8.1 mph - N/A   Unknown
6:00 AM 24.1 °F 15.2 °F 18.5 °F 79% 30.35 in - SE 8.1 mph - N/A   Unknown
6:20 AM 24.3 °F 15.4 °F 18.5 °F 79% - - SE 8.1 mph - N/A   Unknown
6:40 AM 24.1 °F 15.2 °F 18.1 °F 78% - - SE 8.1 mph - N/A   Unknown
7:00 AM 23.4 °F 13.5 °F 17.6 °F 79% 30.35 in - SE 9.2 mph - N/A   Unknown
7:20 AM 23.5 °F 12.4 °F 18.0 °F 79% - - SE 11.5 mph - N/A   Unknown
7:40 AM 24.4 °F 13.5 °F 18.1 °F 77% - - SE 11.5 mph - N/A   Unknown
8:00 AM 25.2 °F 14.4 °F 18.7 °F 76% 30.37 in - SE 11.5 mph - N/A   Unknown
8:20 AM 25.7 °F 15.7 °F 18.9 °F 75% - - SE 10.4 mph - N/A   Unknown
8:40 AM 25.9 °F 16.6 °F 18.7 °F 74% - - SE 9.2 mph - N/A   Unknown
9:00 AM 26.1 °F 16.2 °F 18.5 °F 73% 30.37 in - SSE 10.4 mph - N/A   Unknown
9:20 AM 27.0 °F 16.7 °F 18.3 °F 70% - - SSE 11.5 mph - N/A   Unknown
9:40 AM 27.3 °F 17.1 °F 18.1 °F 68% - - SSE 11.5 mph - N/A   Unknown
10:00 AM 28.8 °F 19.0 °F 18.7 °F 66% 30.35 in - SSE 11.5 mph - N/A   Unknown
10:20 AM 29.7 °F 22.0 °F 18.7 °F 64% - - SSE 8.1 mph - N/A   Unknown
10:40 AM 30.6 °F 21.8 °F 18.1 °F 60% - - SE 10.4 mph - N/A   Unknown
11:00 AM 30.9 °F 21.7 °F 19.0 °F 61% 30.31 in - SE 11.5 mph 17.3 mph N/A   Unknown
11:20 AM 31.5 °F 23.5 °F 19.2 °F 61% - - SSE 9.2 mph - N/A   Unknown
11:40 AM 31.5 °F 24.2 °F 20.5 °F 64% - - SE 8.1 mph - N/A   Unknown
12:00 PM 32.9 °F 24.1 °F 21.4 °F 63% 30.30 in - SE 11.5 mph - N/A   Unknown
12:20 PM 33.6 °F 27.5 °F 22.5 °F 64% - - SSE 6.9 mph - N/A   Unknown
12:40 PM 33.3 °F 25.1 °F 23.0 °F 66% - - SSE 10.4 mph - N/A   Unknown
1:00 PM 33.6 °F 25.0 °F 23.9 °F 68% 30.25 in - SSE 11.5 mph - N/A   Unknown
1:20 PM 34.9 °F 26.2 °F 25.2 °F 68% - - SE 12.7 mph 19.6 mph N/A   Unknown
1:40 PM 34.9 °F 27.1 °F 26.2 °F 71% - - SSE 10.4 mph 21.9 mph N/A   Unknown
2:00 PM 35.6 °F 25.9 °F 27.5 °F 72% 30.21 in - SSE 16.1 mph 24.2 mph N/A   Unknown
2:20 PM 35.8 °F 27.3 °F 28.6 °F 75% - - SSE 12.7 mph 20.7 mph N/A   Unknown
2:40 PM 36.0 °F 30.3 °F 29.7 °F 78% - - SW 6.9 mph - N/A   Unknown
3:20 PM 36.1 °F 24.7 °F 31.3 °F 83% - - ESE 23.0 mph 34.5 mph N/A   Unknown
3:40 PM 37.4 °F 26.4 °F 31.6 °F 80% - - SE 23.0 mph 38.0 mph N/A   Unknown
4:00 PM 37.9 °F 26.3 °F 32.0 °F 79% 30.12 in - SE 26.5 mph 34.5 mph N/A   Unknown
4:20 PM 37.8 °F 26.3 °F 32.9 °F 83% - - SE 25.3 mph 35.7 mph N/A   Unknown
4:40 PM 37.8 °F 26.1 °F 33.4 °F 84% - - SE 26.5 mph 39.1 mph N/A   Unknown
5:00 PM 38.3 °F 26.0 °F 33.4 °F 83% 30.07 in - SE 31.1 mph 43.7 mph N/A   Unknown
5:20 PM 38.5 °F 26.6 °F 33.4 °F 82% - - SE 28.8 mph 41.4 mph N/A   Unknown
5:40 PM 38.8 °F 27.1 °F 34.2 °F 83% - - SE 28.8 mph 42.6 mph N/A   Unknown
6:00 PM 39.0 °F 27.0 °F 34.5 °F 84% 30.04 in - SE 31.1 mph 42.6 mph N/A   Unknown
6:20 PM 39.2 °F 27.6 °F 34.9 °F 84% - - SE 28.8 mph 38.0 mph N/A   Unknown
6:40 PM 42.3 °F 32.8 °F 37.4 °F 83% - - ESE 23.0 mph 35.7 mph N/A   Unknown
7:00 PM 41.2 °F 29.9 °F 37.4 °F 86% 29.99 in - SE 31.1 mph 48.3 mph N/A   Unknown
7:20 PM 41.2 °F 30.3 °F 36.7 °F 84% - - SE 28.8 mph 39.1 mph N/A   Unknown
7:40 PM 40.6 °F 30.0 °F 36.5 °F 85% - - SE 26.5 mph 34.5 mph N/A   Unknown
8:00 PM 40.3 °F 29.1 °F 36.3 °F 86% 29.97 in - SE 28.8 mph - N/A   Unknown
8:20 PM 40.3 °F 28.9 °F 35.8 °F 84% - - SE 29.9 mph 41.4 mph N/A   Unknown
8:40 PM 40.1 °F 29.2 °F 36.0 °F 85% - - SE 26.5 mph 40.3 mph N/A   Unknown
9:00 PM 41.0 °F 29.8 °F 36.9 °F 85% 29.91 in - SE 29.9 mph 40.3 mph N/A   Unknown
9:20 PM 41.5 °F 31.4 °F 37.2 °F 85% - - SE 25.3 mph 40.3 mph N/A   Unknown
9:40 PM 42.1 °F 31.3 °F 37.9 °F 85% - - ESE 29.9 mph 40.3 mph N/A   Unknown
10:20 PM 43.5 °F 34.0 °F 40.5 °F 89% - - SE 25.3 mph 39.1 mph N/A   Unknown
10:40 PM 43.9 °F 34.3 °F 40.3 °F 87% - - SE 26.5 mph 39.1 mph N/A   Unknown
11:00 PM 44.1 °F 33.5 °F 40.3 °F 87% 29.77 in - ESE 33.4 mph 44.9 mph N/A   Unknown
11:20 PM 44.8 °F 35.3 °F 41.2 °F 87% - - SE 27.6 mph 42.6 mph N/A   Unknown
11:40 PM 45.3 °F 36.5 °F 41.9 °F 88% - - SE 25.3 mph 40.3 mph N/A   Unknown